Location: Newark
(55.7083°N, 13.1992°E)
Time: 23:54:48
(UTC+00:00)

Transit 4A - Pass Details

Date: 26 February 2020
Orbit: 871 x 973 km, 66.8° (Epoch: 28 March)

Event Time Altitude Azimuth Distance (km) Brightness Sun altitude
Exits shadow 02:22:07 28° 338° (NNW) 1,592 9.2 -31.3°
Maximum altitude 02:22:52 29° 352° (N) 1,564 9.2 -31.2°
Drops below altitude 10° 02:27:54 10° 51° (NE) 2,535 11.1 -30.6°
Sets 02:30:46 0° 63° (ENE) 3,481 12.1 -30.2°
